| time (UTC) | temp F | wind direction | speed MPH | gust MPH | rain 1hr in | rain 24hr in | rain mn in | humidity % | barometer mb |
| 20260505163057 | 79 | 83 | 2.0 | 4.0 | 0.00 | 0.00 | 0.00 | 83 | 1010.9 |
| 20260505162555 | 78 | 77 | 0.0 | 2.0 | 0.00 | 0.00 | 0.00 | 84 | 1010.9 |
| 20260505162052 | 78 | 86 | 1.0 | 3.0 | 0.00 | 0.00 | 0.00 | 84 | 1011.1 |
| 20260505161549 | 77 | 74 | 0.0 | 1.0 | 0.00 | 0.00 | 0.00 | 85 | 1010.9 |
| 20260505161047 | 77 | 99 | 0.0 | 1.0 | 0.00 | 0.00 | 0.00 | 85 | 1011.0 |
| 20260505160544 | 77 | 1 | 1.0 | 3.0 | 0.00 | 0.00 | 0.00 | 85 | 1010.9 |
| 20260505153021 | 75 | 52 | 1.0 | 2.0 | 0.00 | 0.00 | 0.00 | 90 | 1011.1 |
| 20260505152518 | 75 | 172 | 1.0 | 2.0 | 0.00 | 0.00 | 0.00 | 89 | 1010.9 |
| 20260505152013 | 74 | 74 | 2.0 | 2.0 | 0.00 | 0.00 | 0.00 | 90 | 1010.9 |
| 20260505151508 | 74 | 108 | 0.0 | 1.0 | 0.00 | 0.00 | 0.00 | 90 | 1010.9 |
| 20260505151006 | 74 | 19 | 1.0 | 2.0 | 0.00 | 0.00 | 0.00 | 90 | 1010.7 |
| 20260505150502 | 74 | 73 | 0.0 | 1.0 | 0.00 | 0.00 | 0.00 | 89 | 1010.8 |
| 20260505140432 | 73 | 73 | 0.0 | 1.0 | 0.00 | 0.00 | 0.00 | 91 | 1010.3 |
| 20260505124846 | 71 | 70 | 0.0 | 2.0 | 0.00 | 0.00 | 0.00 | 92 | 1010.0 |
| 20260505124343 | 71 | 126 | 1.0 | 3.0 | 0.00 | 0.00 | 0.00 | 92 | 1009.8 |
| 20260505123839 | 71 | 75 | 1.0 | 6.0 | 0.00 | 0.00 | 0.00 | 92 | 1010.0 |
| 20260505123336 | 71 | 143 | 1.0 | 2.0 | 0.00 | 0.00 | 0.00 | 92 | 1010.0 |
| 20260505122832 | 71 | 77 | 0.0 | 1.0 | 0.00 | 0.00 | 0.00 | 92 | 1010.1 |
| 20260505122329 | 71 | 75 | 1.0 | 3.0 | 0.00 | 0.00 | 0.00 | 92 | 1010.1 |
| 20260505121826 | 71 | 274 | 2.0 | 2.0 | 0.00 | 0.00 | 0.00 | 92 | 1010.2 |
| 20260505121323 | 71 | 76 | 1.0 | 1.0 | 0.00 | 0.00 | 0.00 | 92 | 1009.7 |
| 20260505120819 | 71 | 82 | 1.0 | 1.0 | 0.00 | 0.00 | 0.00 | 92 | 1009.5 |
| 20260505120315 | 71 | 87 | 2.0 | 2.0 | 0.00 | 0.00 | 0.00 | 92 | 1009.7 |
| 20260505115813 | 70 | 71 | 1.0 | 2.0 | 0.00 | 0.00 | 0.00 | 92 | 1009.7 |
| 20260505115311 | 70 | 119 | 1.0 | 3.0 | 0.00 | 0.00 | 0.00 | 92 | 1009.6 |
| 20260505114809 | 70 | 72 | 1.0 | 1.0 | 0.00 | 0.00 | 0.00 | 92 | 1009.8 |
| 20260505114305 | 71 | 90 | 0.0 | 2.0 | 0.00 | 0.00 | 0.00 | 92 | 1009.8 |
| 20260505113801 | 71 | 71 | 1.0 | 2.0 | 0.00 | 0.00 | 0.00 | 92 | 1009.7 |
| 20260505113258 | 71 | 74 | 1.0 | 2.0 | 0.00 | 0.00 | 0.00 | 92 | 1009.6 |
| 20260505112754 | 71 | 70 | 1.0 | 2.0 | 0.00 | 0.00 | 0.00 | 91 | 1009.6 |
| 20260505112252 | 71 | 75 | 1.0 | 3.0 | 0.00 | 0.00 | 0.00 | 91 | 1009.8 |
| 20260505111752 | 71 | 79 | 1.0 | 2.0 | 0.00 | 0.00 | 0.00 | 91 | 1009.7 |
| 20260505111248 | 70 | 85 | 1.0 | 2.0 | 0.00 | 0.00 | 0.00 | 91 | 1009.6 |
| 20260505110744 | 70 | 84 | 1.0 | 2.0 | 0.00 | 0.00 | 0.00 | 91 | 1009.6 |
| 20260505110242 | 70 | 62 | 1.0 | 1.0 | 0.00 | 0.00 | 0.00 | 91 | 1009.5 |
| 20260505102217 | 70 | 83 | 0.0 | 2.0 | 0.00 | 0.00 | 0.00 | 92 | 1009.5 |
| 20260505101716 | 70 | 73 | 0.0 | 2.0 | 0.00 | 0.00 | 0.00 | 92 | 1009.3 |
| 20260505101212 | 70 | 37 | 0.0 | 3.0 | 0.00 | 0.00 | 0.00 | 92 | 1009.8 |
| 20260505100708 | 70 | 81 | 1.0 | 3.0 | 0.00 | 0.00 | 0.00 | 92 | 1009.7 |
| 20260505100206 | 70 | 98 | 1.0 | 4.0 | 0.00 | 0.00 | 0.00 | 92 | 1009.9 |
| 20260505095701 | 70 | 91 | 0.0 | 2.0 | 0.00 | 0.00 | 0.00 | 92 | 1009.6 |
| 20260505095159 | 70 | 122 | 2.0 | 4.0 | 0.00 | 0.00 | 0.00 | 92 | 1009.7 |
| 20260505094654 | 70 | 76 | 0.0 | 2.0 | 0.00 | 0.00 | 0.00 | 92 | 1009.7 |
| 20260505094151 | 70 | 10 | 1.0 | 4.0 | 0.00 | 0.00 | 0.00 | 92 | 1009.8 |
| 20260505093647 | 70 | 113 | 1.0 | 2.0 | 0.00 | 0.00 | 0.00 | 92 | 1009.7 |
| 20260505093145 | 70 | 72 | 0.0 | 1.0 | 0.00 | 0.00 | 0.00 | 92 | 1009.9 |
| 20260505092642 | 69 | 52 | 2.0 | 2.0 | 0.00 | 0.00 | 0.00 | 92 | 1009.7 |
| 20260505092141 | 69 | 161 | 1.0 | 2.0 | 0.00 | 0.00 | 0.00 | 92 | 1009.8 |
| 20260505091637 | 69 | 64 | 0.0 | 1.0 | 0.00 | 0.00 | 0.00 | 92 | 1009.8 |
| 20260505091135 | 69 | 69 | 0.0 | 2.0 | 0.00 | 0.00 | 0.00 | 92 | 1009.9 |
| 20260505090632 | 69 | 91 | 2.0 | 3.0 | 0.00 | 0.00 | 0.00 | 92 | 1009.9 |
| 20260505090131 | 69 | 30 | 0.0 | 1.0 | 0.00 | 0.00 | 0.00 | 91 | 1009.8 |
| 20260505085628 | 69 | 89 | 0.0 | 2.0 | 0.00 | 0.00 | 0.00 | 91 | 1009.8 |
| 20260505085126 | 69 | 86 | 0.0 | 2.0 | 0.00 | 0.00 | 0.00 | 91 | 1009.9 |
| 20260505084623 | 69 | 127 | 1.0 | 2.0 | 0.00 | 0.00 | 0.00 | 91 | 1010.2 |
| 20260505084122 | 69 | 64 | 0.0 | 1.0 | 0.00 | 0.00 | 0.00 | 91 | 1010.4 |
| 20260505083619 | 69 | 86 | 1.0 | 1.0 | 0.00 | 0.00 | 0.00 | 91 | 1010.3 |
| 20260505083115 | 69 | 61 | 0.0 | 1.0 | 0.00 | 0.00 | 0.00 | 91 | 1010.3 |
| 20260505082611 | 69 | 72 | 1.0 | 1.0 | 0.00 | 0.00 | 0.00 | 91 | 1010.4 |
| 20260505082108 | 69 | 99 | 2.0 | 3.0 | 0.00 | 0.00 | 0.00 | 91 | 1010.6 |
| 20260505081604 | 69 | 85 | 0.0 | 4.0 | 0.00 | 0.00 | 0.00 | 90 | 1010.6 |
| 20260505081102 | 69 | 90 | 2.0 | 3.0 | 0.00 | 0.00 | 0.00 | 90 | 1010.7 |
| 20260505080557 | 69 | 77 | 2.0 | 2.0 | 0.00 | 0.00 | 0.00 | 90 | 1010.7 |
| 20260505080054 | 69 | 79 | 1.0 | 2.0 | 0.00 | 0.00 | 0.00 | 90 | 1010.8 |
| 20260505075550 | 69 | 105 | 1.0 | 4.0 | 0.00 | 0.00 | 0.00 | 90 | 1010.9 |
| 20260505075047 | 69 | 102 | 1.0 | 1.0 | 0.00 | 0.00 | 0.00 | 90 | 1011.0 |
| 20260505074544 | 69 | 157 | 2.0 | 2.0 | 0.00 | 0.00 | 0.00 | 90 | 1010.7 |
| 20260505074042 | 69 | 78 | 0.0 | 1.0 | 0.00 | 0.00 | 0.00 | 89 | 1010.7 |
| 20260505073539 | 69 | 120 | 1.0 | 2.0 | 0.00 | 0.00 | 0.00 | 89 | 1010.8 |
| 20260505073038 | 69 | 85 | 1.0 | 2.0 | 0.00 | 0.00 | 0.00 | 89 | 1010.9 |
| 20260505072533 | 69 | 70 | 1.0 | 4.0 | 0.00 | 0.00 | 0.00 | 89 | 1010.9 |
| 20260505072029 | 69 | 66 | 0.0 | 2.0 | 0.00 | 0.00 | 0.00 | 89 | 1011.0 |
| 20260505071524 | 69 | 69 | 1.0 | 1.0 | 0.00 | 0.00 | 0.00 | 89 | 1010.8 |
| 20260505071023 | 69 | 60 | 0.0 | 1.0 | 0.00 | 0.00 | 0.00 | 89 | 1011.0 |
| 20260505070520 | 69 | 88 | 3.0 | 3.0 | 0.00 | 0.00 | 0.00 | 89 | 1011.2 |
| 20260505070016 | 69 | 97 | 1.0 | 2.0 | 0.00 | 0.00 | 0.00 | 89 | 1011.4 |
| 20260505065512 | 69 | 79 | 0.0 | 1.0 | 0.00 | 0.00 | 0.00 | 89 | 1011.3 |
| 20260505065008 | 69 | 86 | 1.0 | 4.0 | 0.00 | 0.00 | 0.00 | 89 | 1011.6 |
| 20260505064505 | 69 | 63 | 1.0 | 1.0 | 0.00 | 0.00 | 0.00 | 88 | 1011.6 |
| 20260505064004 | 69 | 190 | 2.0 | 4.0 | 0.00 | 0.00 | 0.00 | 88 | 1011.5 |
| 20260505063500 | 69 | 103 | 3.0 | 4.0 | 0.00 | 0.00 | 0.00 | 88 | 1011.5 |
| 20260505062956 | 69 | 71 | 1.0 | 1.0 | 0.00 | 0.00 | 0.00 | 88 | 1011.4 |
| 20260505062453 | 69 | 102 | 2.0 | 3.0 | 0.00 | 0.00 | 0.00 | 88 | 1011.7 |
| 20260505061950 | 70 | 113 | 0.0 | 1.0 | 0.00 | 0.00 | 0.00 | 87 | 1011.7 |
| 20260505061448 | 70 | 71 | 0.0 | 3.0 | 0.00 | 0.00 | 0.00 | 87 | 1011.6 |
| 20260505060946 | 70 | 79 | 1.0 | 3.0 | 0.00 | 0.00 | 0.00 | 87 | 1011.6 |
| 20260505060443 | 70 | 53 | 1.0 | 4.0 | 0.00 | 0.00 | 0.00 | 87 | 1011.6 |
| 20260505055939 | 70 | 131 | 1.0 | 4.0 | 0.00 | 0.00 | 0.00 | 87 | 1011.5 |
| 20260505055435 | 70 | 81 | 0.0 | 1.0 | 0.00 | 0.00 | 0.00 | 87 | 1011.3 |
| 20260505054932 | 70 | 81 | 2.0 | 2.0 | 0.00 | 0.00 | 0.00 | 86 | 1011.5 |
| 20260505054429 | 70 | 71 | 0.0 | 2.0 | 0.00 | 0.00 | 0.00 | 86 | 1011.5 |
| 20260505053927 | 70 | 71 | 0.0 | 3.0 | 0.00 | 0.00 | 0.00 | 86 | 1011.5 |
| 20260505053424 | 70 | 106 | 1.0 | 3.0 | 0.00 | 0.00 | 0.00 | 85 | 1011.6 |
| 20260505052921 | 70 | 67 | 2.0 | 8.0 | 0.00 | 0.00 | 0.00 | 85 | 1011.6 |
| 20260505052418 | 70 | 107 | 1.0 | 6.0 | 0.00 | 0.00 | 0.00 | 85 | 1011.5 |
| 20260505051915 | 71 | 78 | 0.0 | 4.0 | 0.00 | 0.00 | 0.00 | 85 | 1011.4 |
| 20260505051412 | 71 | 42 | 2.0 | 7.0 | 0.00 | 0.00 | 0.00 | 84 | 1011.3 |
| 20260505050910 | 71 | 66 | 0.0 | 6.0 | 0.00 | 0.00 | 0.00 | 84 | 1011.5 |
| 20260505050408 | 71 | 102 | 1.0 | 2.0 | 0.00 | 0.00 | 0.00 | 84 | 1011.6 |
| 20260505041336 | 72 | 113 | 2.0 | 2.0 | 0.00 | 0.00 | 0.00 | 81 | 1011.8 |
| 20260505040833 | 72 | 60 | 1.0 | 3.0 | 0.00 | 0.00 | 0.00 | 81 | 1011.8 |
| 20260505040330 | 72 | 182 | 2.0 | 3.0 | 0.00 | 0.00 | 0.00 | 80 | 1011.9 |
| 20260505035827 | 72 | 85 | 0.0 | 4.0 | 0.00 | 0.00 | 0.00 | 80 | 1011.8 |
| 20260505035323 | 72 | 103 | 0.0 | 9.0 | 0.00 | 0.00 | 0.00 | 80 | 1011.8 |
| 20260505034821 | 72 | 71 | 1.0 | 2.0 | 0.00 | 0.00 | 0.00 | 80 | 1011.7 |
| 20260505034317 | 72 | 79 | 0.0 | 2.0 | 0.00 | 0.00 | 0.00 | 79 | 1011.7 |
| 20260505033814 | 73 | 118 | 2.0 | 3.0 | 0.00 | 0.00 | 0.00 | 79 | 1011.5 |
| 20260505033311 | 73 | 92 | 2.0 | 3.0 | 0.00 | 0.00 | 0.00 | 79 | 1011.7 |
| 20260505032809 | 73 | 107 | 3.0 | 4.0 | 0.00 | 0.00 | 0.00 | 79 | 1011.6 |
| 20260505032305 | 73 | 68 | 1.0 | 4.0 | 0.00 | 0.00 | 0.00 | 79 | 1011.7 |
| 20260505031803 | 73 | 68 | 1.0 | 3.0 | 0.00 | 0.00 | 0.00 | 79 | 1011.7 |
| 20260505031259 | 73 | 88 | 1.0 | 2.0 | 0.00 | 0.00 | 0.00 | 79 | 1011.7 |
| 20260505030756 | 73 | 101 | 2.0 | 3.0 | 0.00 | 0.00 | 0.00 | 79 | 1011.8 |
| 20260505030252 | 73 | 60 | 1.0 | 4.0 | 0.00 | 0.00 | 0.00 | 78 | 1011.5 |
| 20260505025747 | 73 | 68 | 2.0 | 4.0 | 0.00 | 0.00 | 0.00 | 78 | 1011.8 |
| 20260505025246 | 73 | 91 | 1.0 | 3.0 | 0.00 | 0.00 | 0.00 | 78 | 1011.7 |
| 20260505024744 | 74 | 88 | 1.0 | 2.0 | 0.00 | 0.00 | 0.00 | 78 | 1011.8 |
| 20260505024241 | 74 | 74 | 0.0 | 1.0 | 0.00 | 0.00 | 0.00 | 77 | 1011.7 |
| 20260505023738 | 74 | 178 | 1.0 | 3.0 | 0.00 | 0.00 | 0.00 | 76 | 1011.7 |
| 20260505023235 | 74 | 81 | 1.0 | 3.0 | 0.00 | 0.00 | 0.00 | 76 | 1011.6 |
| 20260505022733 | 74 | 114 | 2.0 | 4.0 | 0.00 | 0.00 | 0.00 | 76 | 1011.7 |
| 20260505022230 | 74 | 165 | 2.0 | 2.0 | 0.00 | 0.00 | 0.00 | 76 | 1011.4 |
| 20260505021726 | 74 | 94 | 1.0 | 7.0 | 0.00 | 0.00 | 0.00 | 76 | 1011.6 |
| 20260505021223 | 75 | 79 | 1.0 | 2.0 | 0.00 | 0.00 | 0.00 | 76 | 1011.5 |
| 20260505020719 | 75 | 128 | 2.0 | 4.0 | 0.00 | 0.00 | 0.00 | 75 | 1011.6 |
| 20260505020214 | 75 | 98 | 1.0 | 2.0 | 0.00 | 0.00 | 0.00 | 75 | 1011.6 |
| 20260505015712 | 75 | 115 | 2.0 | 3.0 | 0.00 | 0.00 | 0.00 | 75 | 1011.4 |
| 20260505015209 | 75 | 80 | 1.0 | 2.0 | 0.00 | 0.00 | 0.00 | 75 | 1011.1 |
| 20260505014706 | 75 | 69 | 1.0 | 3.0 | 0.00 | 0.00 | 0.00 | 74 | 1011.2 |
| 20260505014203 | 75 | 79 | 0.0 | 4.0 | 0.00 | 0.00 | 0.00 | 74 | 1011.2 |
| 20260505013700 | 76 | 78 | 2.0 | 3.0 | 0.00 | 0.00 | 0.00 | 73 | 1011.0 |
| 20260505013157 | 76 | 66 | 0.0 | 2.0 | 0.00 | 0.00 | 0.00 | 73 | 1011.3 |
| 20260505012655 | 76 | 105 | 2.0 | 3.0 | 0.00 | 0.00 | 0.00 | 72 | 1011.0 |
| 20260505012152 | 76 | 59 | 0.0 | 3.0 | 0.00 | 0.00 | 0.00 | 72 | 1011.2 |
| 20260505011652 | 76 | 106 | 1.0 | 2.0 | 0.00 | 0.00 | 0.00 | 71 | 1011.2 |
| 20260505011150 | 77 | 71 | 3.0 | 4.0 | 0.00 | 0.00 | 0.00 | 70 | 1011.1 |
| 20260505010645 | 77 | 106 | 2.0 | 4.0 | 0.00 | 0.00 | 0.00 | 70 | 1011.1 |
| 20260505010142 | 77 | 152 | 1.0 | 3.0 | 0.00 | 0.00 | 0.00 | 70 | 1010.9 |
| 20260505005638 | 77 | 71 | 0.0 | 2.0 | 0.00 | 0.00 | 0.00 | 70 | 1011.1 |
| 20260505005135 | 77 | 129 | 1.0 | 2.0 | 0.00 | 0.00 | 0.00 | 70 | 1010.9 |
| 20260505004632 | 77 | 65 | 1.0 | 1.0 | 0.00 | 0.00 | 0.00 | 70 | 1011.0 |
| 20260505004129 | 77 | 71 | 2.0 | 7.0 | 0.00 | 0.00 | 0.00 | 69 | 1011.1 |
| 20260505003626 | 77 | 86 | 1.0 | 6.0 | 0.00 | 0.00 | 0.00 | 69 | 1011.2 |
| 20260505003123 | 78 | 146 | 3.0 | 4.0 | 0.00 | 0.00 | 0.00 | 69 | 1011.0 |
| 20260505002619 | 78 | 77 | 1.0 | 2.0 | 0.00 | 0.00 | 0.00 | 68 | 1011.2 |
| 20260505002118 | 78 | 127 | 2.0 | 8.0 | 0.00 | 0.00 | 0.00 | 68 | 1011.4 |
| 20260505001614 | 78 | 100 | 1.0 | 2.0 | 0.00 | 0.00 | 0.00 | 68 | 1011.1 |
| 20260505001112 | 78 | 134 | 1.0 | 2.0 | 0.00 | 0.00 | 0.00 | 68 | 1011.3 |
| 20260505000609 | 78 | 84 | 0.0 | 1.0 | 0.00 | 0.00 | 0.00 | 67 | 1011.1 |
| 20260505000107 | 78 | 81 | 1.0 | 3.0 | 0.00 | 0.00 | 0.00 | 66 | 1011.1 |
| 20260504235603 | 79 | 73 | 1.0 | 3.0 | 0.00 | 0.00 | 0.00 | 66 | 1011.3 |
| 20260504235059 | 79 | 137 | 2.0 | 3.0 | 0.00 | 0.00 | 0.00 | 66 | 1011.4 |
| 20260504234557 | 79 | 97 | 1.0 | 6.0 | 0.00 | 0.00 | 0.00 | 65 | 1011.3 |
| 20260504234054 | 79 | 79 | 1.0 | 3.0 | 0.00 | 0.00 | 0.00 | 65 | 1011.4 |
| 20260504233549 | 79 | 73 | 1.0 | 3.0 | 0.00 | 0.00 | 0.00 | 64 | 1011.4 |
| 20260504233046 | 79 | 128 | 1.0 | 4.0 | 0.00 | 0.00 | 0.00 | 64 | 1011.4 |
| 20260504232543 | 79 | 51 | 2.0 | 3.0 | 0.00 | 0.00 | 0.00 | 63 | 1011.5 |
| 20260504232041 | 80 | 119 | 3.0 | 7.0 | 0.00 | 0.00 | 0.00 | 62 | 1011.3 |
| 20260504231537 | 80 | 114 | 3.0 | 6.0 | 0.00 | 0.00 | 0.00 | 62 | 1011.4 |
| 20260504231033 | 81 | 116 | 2.0 | 6.0 | 0.00 | 0.00 | 0.00 | 62 | 1011.4 |
| 20260504230530 | 81 | 173 | 3.0 | 6.0 | 0.00 | 0.00 | 0.00 | 60 | 1011.4 |
| 20260504230029 | 82 | 72 | 2.0 | 6.0 | 0.00 | 0.00 | 0.00 | 60 | 1011.6 |
| 20260504225525 | 82 | 59 | 1.0 | 4.0 | 0.00 | 0.00 | 0.00 | 60 | 1011.7 |
| 20260504225022 | 81 | 27 | 3.0 | 6.0 | 0.00 | 0.00 | 0.00 | 60 | 1011.6 |
| 20260504224519 | 81 | 115 | 1.0 | 4.0 | 0.00 | 0.00 | 0.00 | 60 | 1011.7 |
| 20260504224016 | 81 | 112 | 1.0 | 2.0 | 0.00 | 0.00 | 0.00 | 60 | 1011.8 |
| 20260504223513 | 81 | 77 | 1.0 | 7.0 | 0.00 | 0.00 | 0.00 | 60 | 1011.9 |
| 20260504223009 | 82 | 99 | 5.0 | 9.0 | 0.00 | 0.00 | 0.00 | 57 | 1011.9 |
| 20260504222506 | 83 | 74 | 0.0 | 6.0 | 0.00 | 0.00 | 0.00 | 59 | 1011.9 |
| 20260504222003 | 82 | 94 | 0.0 | 3.0 | 0.00 | 0.00 | 0.00 | 59 | 1011.6 |
| 20260504221500 | 81 | 99 | 2.0 | 3.0 | 0.00 | 0.00 | 0.00 | 60 | 1011.7 |
| 20260504220957 | 81 | 64 | 2.0 | 8.0 | 0.00 | 0.00 | 0.00 | 60 | 1011.8 |
| 20260504220453 | 81 | 86 | 2.0 | 4.0 | 0.00 | 0.00 | 0.00 | 60 | 1012.0 |
| 20260504215950 | 81 | 102 | 2.0 | 4.0 | 0.00 | 0.00 | 0.00 | 59 | 1012.1 |
| 20260504215447 | 80 | 72 | 1.0 | 4.0 | 0.00 | 0.00 | 0.00 | 62 | 1012.2 |
| 20260504214944 | 80 | 73 | 1.0 | 2.0 | 0.00 | 0.00 | 0.00 | 61 | 1012.0 |
| 20260504214440 | 81 | 111 | 2.0 | 6.0 | 0.00 | 0.00 | 0.00 | 59 | 1012.2 |
| 20260504213937 | 81 | 106 | 2.0 | 6.0 | 0.00 | 0.00 | 0.00 | 58 | 1012.3 |
| 20260504213433 | 81 | 130 | 1.0 | 2.0 | 0.00 | 0.00 | 0.00 | 61 | 1012.5 |
| 20260504212931 | 81 | 70 | 0.0 | 6.0 | 0.00 | 0.00 | 0.00 | 59 | 1012.6 |
| 20260504212426 | 81 | 75 | 2.0 | 3.0 | 0.00 | 0.00 | 0.00 | 57 | 1012.7 |
| 20260504211924 | 81 | 117 | 2.0 | 3.0 | 0.00 | 0.00 | 0.00 | 60 | 1012.5 |
| 20260504211420 | 82 | 48 | 1.0 | 4.0 | 0.00 | 0.00 | 0.00 | 59 | 1012.7 |
| 20260504210918 | 82 | 85 | 1.0 | 2.0 | 0.00 | 0.00 | 0.00 | 58 | 1012.9 |
| 20260504210414 | 81 | 97 | 1.0 | 6.0 | 0.00 | 0.00 | 0.00 | 59 | 1012.9 |
| 20260504205912 | 81 | 154 | 3.0 | 6.0 | 0.00 | 0.00 | 0.00 | 57 | 1013.1 |
| 20260504205409 | 82 | 107 | 3.0 | 8.0 | 0.00 | 0.00 | 0.00 | 57 | 1013.0 |
| 20260504204907 | 82 | 22 | 1.0 | 3.0 | 0.00 | 0.00 | 0.00 | 58 | 1013.3 |
| 20260504204405 | 83 | 97 | 1.0 | 4.0 | 0.00 | 0.00 | 0.00 | 55 | 1013.3 |
| 20260504203905 | 82 | 75 | 0.0 | 3.0 | 0.00 | 0.00 | 0.00 | 58 | 1013.6 |
| 20260504203401 | 83 | 73 | 0.0 | 2.0 | 0.00 | 0.00 | 0.00 | 57 | 1013.5 |
| 20260504202857 | 83 | 73 | 1.0 | 2.0 | 0.00 | 0.00 | 0.00 | 57 | 1013.6 |
| 20260504202354 | 83 | 66 | 0.0 | 2.0 | 0.00 | 0.00 | 0.00 | 59 | 1013.4 |
| 20260504201850 | 84 | 101 | 2.0 | 4.0 | 0.00 | 0.00 | 0.00 | 55 | 1013.6 |
| 20260504201348 | 83 | 100 | 1.0 | 2.0 | 0.00 | 0.00 | 0.00 | 56 | 1013.9 |
| 20260504200845 | 83 | 138 | 3.0 | 3.0 | 0.00 | 0.00 | 0.00 | 57 | 1013.9 |
| 20260504200342 | 83 | 153 | 1.0 | 2.0 | 0.00 | 0.00 | 0.00 | 59 | 1014.1 |
| 20260504195838 | 82 | 110 | 2.0 | 6.0 | 0.00 | 0.00 | 0.00 | 57 | 1014.3 |
| 20260504195334 | 82 | 52 | 2.0 | 4.0 | 0.00 | 0.00 | 0.00 | 54 | 1014.3 |
| 20260504194831 | 82 | 62 | 1.0 | 3.0 | 0.00 | 0.00 | 0.00 | 57 | 1014.4 |
| 20260504194327 | 82 | 114 | 3.0 | 6.0 | 0.00 | 0.00 | 0.00 | 55 | 1014.4 |
| 20260504193823 | 82 | 42 | 1.0 | 6.0 | 0.00 | 0.00 | 0.00 | 56 | 1014.4 |
| 20260504193321 | 82 | 79 | 1.0 | 2.0 | 0.00 | 0.00 | 0.00 | 58 | 1014.7 |
| 20260504192819 | 82 | 132 | 0.0 | 2.0 | 0.00 | 0.00 | 0.00 | 57 | 1014.4 |
| 20260504192317 | 82 | 144 | 1.0 | 3.0 | 0.00 | 0.00 | 0.00 | 56 | 1014.6 |
| 20260504191815 | 81 | 114 | 1.0 | 2.0 | 0.00 | 0.00 | 0.00 | 56 | 1014.7 |
| 20260504191312 | 81 | 80 | 1.0 | 8.0 | 0.00 | 0.00 | 0.00 | 57 | 1014.7 |
| 20260504190808 | 82 | 86 | 1.0 | 3.0 | 0.00 | 0.00 | 0.00 | 55 | 1014.5 |
| 20260504190304 | 80 | 4 | 1.0 | 1.0 | 0.00 | 0.00 | 0.00 | 58 | 1014.8 |
| 20260504185800 | 81 | 126 | 2.0 | 4.0 | 0.00 | 0.00 | 0.00 | 56 | 1014.8 |
| 20260504185258 | 80 | 60 | 1.0 | 1.0 | 0.00 | 0.00 | 0.00 | 57 | 1015.0 |
| 20260504184754 | 81 | 67 | 1.0 | 4.0 | 0.00 | 0.00 | 0.00 | 58 | 1014.9 |
| 20260504184249 | 82 | 53 | 1.0 | 2.0 | 0.00 | 0.00 | 0.00 | 56 | 1015.3 |
| 20260504183745 | 82 | 70 | 2.0 | 3.0 | 0.00 | 0.00 | 0.00 | 55 | 1015.4 |
| 20260504183242 | 81 | 101 | 1.0 | 4.0 | 0.00 | 0.00 | 0.00 | 55 | 1015.4 |
| 20260504182741 | 81 | 252 | 1.0 | 7.0 | 0.00 | 0.00 | 0.00 | 56 | 1015.4 |
| 20260504182238 | 82 | 244 | 2.0 | 2.0 | 0.00 | 0.00 | 0.00 | 55 | 1015.5 |
| 20260504181735 | 81 | 109 | 1.0 | 3.0 | 0.00 | 0.00 | 0.00 | 55 | 1015.6 |
| 20260504181232 | 79 | 62 | 0.0 | 6.0 | 0.00 | 0.00 | 0.00 | 58 | 1015.5 |
| 20260504180731 | 80 | 124 | 2.0 | 8.0 | 0.00 | 0.00 | 0.00 | 56 | 1015.9 |
| 20260504180230 | 81 | 78 | 1.0 | 3.0 | 0.00 | 0.00 | 0.00 | 56 | 1015.8 |
| 20260504175727 | 81 | 77 | 3.0 | 6.0 | 0.00 | 0.00 | 0.00 | 55 | 1015.8 |
| 20260504175223 | 81 | 81 | 3.0 | 4.0 | 0.00 | 0.00 | 0.00 | 56 | 1016.1 |
| 20260504174721 | 80 | 87 | 4.0 | 4.0 | 0.00 | 0.00 | 0.00 | 56 | 1015.9 |
| 20260504174219 | 80 | 55 | 1.0 | 4.0 | 0.00 | 0.00 | 0.00 | 57 | 1016.0 |
| 20260504173715 | 79 | 84 | 1.0 | 2.0 | 0.00 | 0.00 | 0.00 | 60 | 1016.2 |
| 20260504173213 | 79 | 148 | 2.0 | 4.0 | 0.00 | 0.00 | 0.00 | 58 | 1016.1 |
| 20260504172709 | 78 | 80 | 0.0 | 8.0 | 0.00 | 0.00 | 0.00 | 60 | 1016.1 |
| 20260504172205 | 78 | 59 | 2.0 | 6.0 | 0.00 | 0.00 | 0.00 | 58 | 1016.3 |
| 20260504171702 | 78 | 70 | 0.0 | 2.0 | 0.00 | 0.00 | 0.00 | 64 | 1016.3 |
| 20260504171159 | 78 | 90 | 2.0 | 7.0 | 0.00 | 0.00 | 0.00 | 60 | 1016.5 |
| 20260504170655 | 78 | 59 | 0.0 | 2.0 | 0.00 | 0.00 | 0.00 | 60 | 1016.4 |
| 20260504170153 | 77 | 65 | 1.0 | 2.0 | 0.00 | 0.00 | 0.00 | 62 | 1016.4 |